Temperature
17 17 17 18 17 17 17 17 18 17 18 18 18 18 18 18 18 17 17 17 17 17 17 16 16 16 16 16 16 16 16 15 15 15 15 15 15 15
17 17 17 17 17 17 17 17 17 17 17 18 18 18 18 18 18 17 17 17 17 17 17 17 16 16 16 16 16 16 16 15 15 15 15 15 15 15
17 17 17 17 17 17 17 17 17 17 17 17 17 18 17 18 17 17 17 17 17 17 17 17 16 16 16 16 16 16 16 16 15 15 15 15 15 15
17 17 17 17 17 17 17 17 17 17 17 17 17 17 17 17 17 17 17 17 17 17 17 16 16 16 16 16 16 16 16 16 15 15 15 15 15 14
17 17 17 17 17 17 17 17 17 17 17 17 17 17 17 17 17 17 17 17 17 17 16 16 16 16 16 16 16 16 16 16 15 15 15 15 14 14
17 16 16 16 17 17 17 17 16 16 16 16 16 17 17 17 17 17 17 16 16 16 16 16 16 16 16 16 16 16 16 15 15 15 15 14 14 14
16 16 16 16 16 16 16 16 16 16 16 16 16 16 16 16 16 16 16 16 16 16 16 16 16 16 16 15 15 15 15 15 15 15 14 14 14 14
16 16 16 16 16 16 16 16 16 16 16 16 16 16 16 16 16 16 16 16 16 16 16 16 15 15 15 15 15 15 15 15 14 14 14 14 14 13
16 16 16 16 16 16 16 16 16 16 16 16 16 16 16 16 16 15 15 15 15 15 15 15 15 15 15 15 15 14 14 14 14 14 14 13 13 13
16 16 16 16 16 16 16 16 16 16 15 15 15 15 15 15 15 15 15 15 15 15 14 14 14 14 14 14 14 14 14 14 14 13 13 13 13 13
15 15 15 15 15 15 15 15 15 15 15 15 15 15 14 14 14 14 14 14 14 14 14 14 14 14 14 13 13 13 13 13 13 13 13 12 12 12
15 15 15 15 15 15 15 15 15 15 14 14 14 14 14 14 14 14 13 13 13 13 13 13 13 13 13 13 13 13 13 12 12 12 12 12 12 11
15 15 15 15 15 15 14 14 14 14 14 14 14 14 13 13 13 13 13 13 13 13 13 12 12 12 12 12 12 12 12 12 12 12 11 11 11 11
14 14 14 14 14 14 14 14 13 13 13 13 13 13 13 13 12 12 12 12 12 12 12 12 12 12 11 11 11 11 11 11 11 11 11 11 10 10
13 13 13 13 13 13 13 13 13 13 13 12 12 12 12 12 12 12 12 12 11 11 11 11 11 11 11 11 11 10 10 10 10 10 10 10 10 10
13 12 13 12 12 12 12 12 12 12 12 11 11 11 11 11 11 11 11 11 11 11 11 10 10 10 10 10 10 10 10 9 9 9 9 9 9 9
12 12 12 12 12 12 12 11 11 11 11 11 11 11 11 11 10 10 10 10 10 10 10 10 9 9 9 9 9 9 9 9 9 9 9 9 9 8
12 11 11 11 11 11 11 10 10 10 10 10 10 10 10 10 10 10 10 9 9 9 9 9 9 9 9 9 9 8 8 8 8 8 8 8 8 8
11 10 10 10 10 10 10 10 9 9 9 9 9 9 9 9 9 9 9 9 8 8 8 8 8 8 8 8 8 8 8 8 8 8 8 7 7 7
10 9 9 9 9 9 9 9 9 9 8 8 8 8 8 8 8 8 8 8 7 7 7 7 7 7 7 7 7 7 7 7 7 7 7 7 7 7
8 8 8 8 8 8 8 8 8 8 8 8 8 7 7 7 7 7 7 7 7 7 7 7 6 6 6 7 7 7 7 6 6 6 6 6 6 6
8 8 8 8 7 7 7 7 7 7 7 7 7 6 6 6 6 6 6 6 6 6 6 6 6 6 6 6 6 6 6 6 6 6 6 6 6 5
7 7 7 7 7 6 6 6 6 6 6 6 6 6 6 6 5 5 5 5 5 5 5 5 5 5 5 5 5 5 5 5 5 5 5 5 5 5
Wind_Speed
8 7 6 5 4 4 4 5 5 4 5 5 4 5 9 12 15 16 16 19 22 23 23 23 22 21 21 20 20 19 18 17 17 16 16 15 14 14
6 7 7 6 5 4 4 4 5 6 5 5 5 4 5 8 12 13 15 17 20 21 22 22 22 22 21 21 20 19 19 18 18 17 16 16 15 15
8 8 9 7 5 5 4 4 4 5 6 5 3 3 3 4 4 9 11 12 13 18 21 21 22 22 21 21 20 19 19 18 17 17 16 16 15 15
9 8 8 7 7 6 5 5 5 5 6 6 4 3 4 4 4 5 7 9 11 14 18 19 20 21 21 20 20 19 19 18 17 17 16 15 15 14
8 8 8 7 7 6 6 6 5 5 5 5 5 3 3 2 2 3 4 4 7 10 13 15 17 18 19 19 18 18 18 18 17 17 16 16 15 15
7 8 8 8 8 8 7 7 6 5 4 4 4 3 3 2 2 2 3 3 5 6 7 9 11 15 16 16 17 17 17 17 17 17 17 16 16 15
7 7 8 9 11 9 7 7 6 5 4 4 4 3 3 2 3 3 4 3 3 3 3 3 4 5 8 12 15 16 17 18 18 18 17 17 17 16
6 6 7 7 9 11 11 10 9 7 7 6 5 5 6 5 3 3 3 3 3 3 3 3 3 4 5 7 11 14 16 17 17 17 17 17 16 16
5 5 5 5 6 5 6 8 8 9 9 8 7 7 6 5 4 4 4 4 5 3 2 3 3 4 4 7 10 12 13 15 15 15 16 15 15 15
2 3 3 3 3 4 4 3 4 4 5 5 6 6 5 4 5 5 5 4 3 2 2 3 3 3 3 4 8 11 12 13 13 13 14 14 14 14
1 1 2 2 3 3 3 3 3 3 2 3 4 4 3 3 3 2 2 2 2 2 2 3 2 2 2 3 5 8 10 11 12 12 12 13 13 11
1 1 1 0 0 2 2 3 3 3 1 0 0 0 1 0 2 2 3 3 2 2 2 2 2 1 2 2 2 3 4 7 9 9 10 11 10 6
1 1 2 3 2 1 1 1 3 2 1 2 1 0 0 1 0 0 1 2 3 3 2 2 2 2 2 2 2 2 2 3 3 4 7 9 8 6
2 1 2 5 5 4 2 2 2 2 2 1 1 0 1 1 2 1 1 1 3 4 3 2 2 3 2 2 3 2 2 3 2 2 3 5 6 8
3 5 6 6 6 6 7 6 4 3 1 1 0 1 2 2 1 1 1 1 2 3 3 1 2 2 2 3 3 2 2 2 2 2 2 2 2 2
4 6 8 8 7 6 6 5 4 3 2 2 1 2 2 2 1 1 1 1 1 2 4 3 1 2 2 3 3 3 2 2 2 3 3 3 3 3
4 5 5 5 6 5 5 5 5 5 4 3 2 3 3 3 3 2 1 0 0 2 3 3 3 1 2 3 2 3 3 3 3 3 2 3 4 4
7 6 6 6 5 5 5 5 5 4 4 3 3 3 3 2 3 2 1 1 1 2 2 2 2 2 3 2 3 3 2 3 3 3 2 2 4 4
9 7 6 5 5 5 5 5 4 4 4 4 4 4 3 3 3 3 2 2 2 2 2 2 1 1 1 4 4 3 3 3 3 3 2 3 4 5
7 6 6 5 5 5 5 5 5 5 5 5 5 4 4 4 4 4 3 3 2 2 3 2 2 1 2 3 3 4 4 3 2 3 3 2 3 5
6 6 5 5 5 5 5 5 6 5 6 5 5 5 5 4 4 4 4 5 3 3 3 4 4 5 2 1 2 4 4 6 4 3 2 2 3 3
6 6 5 5 5 5 6 5 5 6 6 5 5 5 5 4 4 4 4 4 3 3 3 4 5 4 2 2 3 4 4 5 6 6 4 4 2 2
5 5 5 5 5 5 5 5 6 5 5 5 5 5 5 4 4 3 3 3 3 3 4 4 4 3 3 2 3 4 4 4 3 3 4 7 7 6
Wind_Direction
215 213 216 220 210 203 193 180 181 217 251 251 247 232 218 218 221 219 220 224 225 227 228 229 230 231 232 232 233 235 238 240 243 245 246 249 251 253
216 215 222 224 217 207 201 197 192 197 232 243 234 238 218 220 221 214 217 224 227 228 228 229 230 231 233 234 236 237 238 240 242 243 245 246 248 251
220 217 223 219 214 214 209 204 205 196 227 255 244 244 213 217 211 216 223 224 231 232 232 233 233 234 234 236 237 239 240 240 241 242 242 243 246 250
219 219 224 220 217 219 215 217 219 209 212 238 250 237 224 216 209 212 220 225 227 235 232 233 235 236 235 235 236 238 238 239 240 240 241 243 245 248
214 216 222 217 225 226 222 225 227 226 213 219 238 236 237 228 207 228 226 231 232 238 232 234 236 236 235 236 238 239 239 240 242 243 244 245 246 248
214 215 217 214 221 225 230 231 227 227 218 214 229 235 234 234 180 213 242 236 240 242 232 230 236 238 238 238 241 242 241 241 243 244 244 245 247 249
220 221 222 219 220 222 227 225 219 221 218 216 227 227 229 209 213 210 226 244 253 240 230 236 227 233 237 238 241 243 241 241 241 242 243 244 246 247
220 228 229 227 229 227 230 224 213 214 216 215 221 222 230 221 214 210 212 219 255 245 201 244 207 231 236 230 234 236 238 240 241 242 243 244 246 248
219 225 235 238 229 232 241 241 237 231 215 209 215 223 221 216 202 210 210 208 229 234 187 242 230 240 249 243 236 236 238 241 243 245 246 246 246 248
228 225 225 244 240 221 222 228 238 244 229 220 221 228 224 218 207 210 208 212 242 260 184 228 240 243 254 245 245 240 241 244 244 245 247 248 248 249
280 239 213 223 247 215 196 213 231 251 238 209 213 221 226 222 193 170 181 186 245 261 214 206 240 245 257 256 258 248 246 247 250 251 251 251 251 252
15 8 36 147 280 184 186 194 218 245 214 171 170 253 255 251 156 175 199 209 223 251 242 198 234 209 279 285 285 277 262 262 260 257 255 254 252 246
65 22 12 43 55 98 143 193 216 198 155 150 136 65 16 5 328 203 199 203 216 240 240 189 215 203 203 266 296 282 264 273 274 265 262 260 252 231
77 38 36 46 49 52 63 78 101 99 97 100 95 328 299 292 279 271 253 233 233 242 251 196 207 211 206 242 271 292 293 281 265 261 276 274 261 251
62 49 45 52 57 55 53 54 52 58 73 89 205 274 264 260 274 311 338 330 312 307 302 260 217 229 214 227 244 260 286 293 286 272 276 269 257 254
54 49 48 50 53 49 44 43 44 52 62 50 20 353 356 352 331 304 285 304 342 324 341 342 279 214 233 245 243 259 250 257 280 281 277 277 278 254
73 56 48 47 46 43 44 42 38 39 38 24 20 12 7 359 340 337 348 44 323 304 320 332 345 320 242 234 249 262 268 270 266 273 284 287 279 270
76 64 56 52 50 45 44 38 35 31 24 22 23 21 11 0 349 349 358 350 299 295 298 317 349 1 355 323 241 243 270 266 270 271 253 265 281 286
71 66 59 52 47 42 43 40 30 20 21 26 23 17 15 11 3 357 359 359 341 322 315 318 347 43 333 308 300 257 239 269 279 282 269 255 262 275
66 68 61 54 48 40 38 36 30 28 28 27 25 21 18 16 11 2 357 354 341 334 332 329 321 283 253 265 276 292 280 256 270 280 287 290 281 289
64 63 58 53 49 42 40 39 38 34 28 27 22 17 13 12 8 359 357 356 355 348 342 328 312 314 298 346 323 307 301 298 279 258 271 300 309 315
66 63 56 53 49 45 42 40 37 30 23 21 14 10 7 8 5 3 0 358 349 338 327 321 330 345 357 332 304 298 304 314 321 319 295 257 243 254
67 65 59 53 46 44 44 41 38 26 17 9 4 0 359 358 352 355 356 351 347 345 339 335 341 347 334 313 304 301 305 311 323 337 326 325 303 286
Height
1551 1552 1554 1555 1556 1557 1558 1559 1560 1559 1558 1558 1559 1559 1560 1561 1561 1562 1562 1563 1563 1564 1564 1564 1564 1564 1565 1565 1565 1565 1566 1566 1566 1566 1566 1565 1565 1565
1546 1547 1549 1550 1551 1553 1554 1555 1555 1555 1554 1554 1555 1555 1556 1557 1557 1558 1558 1559 1559 1560 1560 1560 1560 1560 1561 1561 1561 1561 1562 1562 1562 1562 1561 1561 1561 1560
1540 1542 1543 1545 1546 1548 1549 1550 1550 1550 1550 1550 1551 1551 1552 1553 1553 1554 1555 1555 1555 1555 1556 1556 1556 1556 1556 1557 1557 1557 1557 1557 1557 1557 1557 1557 1556 1556
1535 1537 1538 1540 1541 1542 1544 1544 1545 1545 1546 1545 1546 1547 1548 1549 1549 1550 1550 1551 1551 1551 1551 1552 1552 1552 1552 1552 1552 1552 1552 1552 1552 1552 1552 1552 1552 1551
1531 1532 1533 1534 1536 1537 1538 1539 1540 1540 1541 1541 1541 1542 1543 1544 1544 1545 1546 1546 1546 1547 1547 1547 1547 1547 1547 1547 1547 1547 1547 1547 1547 1547 1547 1547 1546 1546
1526 1527 1528 1530 1531 1532 1533 1534 1534 1535 1536 1536 1536 1537 1538 1539 1540 1540 1540 1541 1541 1542 1542 1542 1542 1542 1542 1542 1542 1542 1542 1542 1541 1541 1541 1541 1540 1540
1522 1523 1524 1525 1526 1527 1528 1528 1529 1530 1531 1531 1532 1532 1533 1534 1534 1535 1536 1536 1536 1537 1537 1536 1537 1536 1537 1537 1537 1537 1536 1536 1536 1535 1535 1535 1534 1533
1517 1518 1519 1520 1521 1522 1523 1524 1525 1525 1526 1526 1527 1527 1528 1529 1530 1530 1531 1531 1531 1532 1532 1531 1532 1531 1531 1531 1531 1531 1531 1531 1530 1530 1529 1529 1528 1527
1513 1514 1515 1516 1517 1517 1518 1519 1520 1520 1521 1522 1522 1522 1523 1524 1525 1525 1525 1525 1525 1526 1527 1526 1526 1525 1525 1525 1525 1525 1525 1524 1524 1524 1523 1523 1522 1521
1510 1510 1511 1511 1512 1513 1513 1513 1514 1515 1515 1516 1517 1517 1518 1519 1520 1520 1521 1521 1521 1521 1521 1520 1520 1520 1520 1519 1519 1519 1519 1519 1518 1518 1517 1517 1516 1515
1506 1507 1507 1508 1508 1509 1509 1509 1509 1509 1510 1511 1512 1512 1513 1513 1514 1515 1515 1515 1514 1515 1516 1515 1514 1514 1514 1514 1514 1514 1513 1513 1512 1512 1511 1511 1510 1509
1503 1504 1504 1504 1505 1505 1505 1505 1505 1505 1506 1506 1507 1507 1507 1508 1508 1509 1510 1510 1509 1509 1510 1510 1510 1510 1509 1508 1508 1508 1508 1507 1507 1506 1506 1505 1504 1503
1501 1501 1502 1502 1502 1502 1502 1502 1502 1503 1503 1503 1503 1502 1502 1503 1503 1504 1505 1505 1505 1505 1506 1506 1505 1505 1504 1503 1503 1503 1503 1502 1501 1500 1500 1499 1498 1497
1499 1499 1500 1500 1500 1500 1500 1500 1500 1500 1500 1499 1499 1499 1499 1499 1499 1500 1500 1501 1501 1501 1501 1501 1500 1500 1499 1498 1497 1497 1497 1496 1496 1495 1494 1493 1492 1491
1497 1498 1498 1498 1499 1499 1498 1498 1498 1497 1497 1496 1496 1496 1496 1496 1497 1497 1496 1497 1496 1496 1496 1496 1495 1494 1494 1493 1492 1492 1491 1491 1490 1489 1488 1487 1486 1485
1496 1497 1497 1497 1498 1498 1498 1497 1497 1496 1496 1495 1494 1494 1494 1494 1493 1493 1493 1492 1492 1491 1491 1491 1490 1490 1489 1488 1488 1487 1486 1486 1485 1484 1483 1482 1481 1480
1497 1497 1497 1497 1497 1497 1497 1497 1496 1496 1495 1494 1493 1493 1492 1492 1491 1491 1490 1489 1488 1487 1487 1486 1486 1486 1485 1484 1483 1482 1482 1481 1480 1479 1478 1476 1475 1474
1497 1497 1497 1497 1497 1497 1497 1496 1496 1495 1494 1493 1492 1492 1491 1490 1489 1488 1487 1486 1485 1484 1483 1483 1482 1481 1481 1480 1480 1479 1478 1476 1475 1474 1473 1471 1470 1469
1497 1497 1498 1498 1498 1497 1497 1496 1495 1495 1494 1493 1492 1490 1490 1488 1487 1486 1485 1484 1482 1482 1481 1481 1479 1478 1477 1476 1476 1476 1474 1473 1471 1470 1468 1467 1465 1464
1498 1498 1498 1498 1498 1498 1497 1496 1495 1494 1493 1492 1491 1490 1488 1487 1486 1485 1483 1482 1481 1480 1479 1478 1477 1476 1475 1474 1472 1472 1471 1469 1467 1465 1464 1462 1461 1460
1500 1500 1500 1500 1499 1498 1497 1496 1495 1494 1493 1492 1491 1489 1488 1486 1485 1484 1482 1481 1480 1478 1477 1476 1475 1474 1473 1472 1470 1468 1467 1466 1464 1462 1460 1458 1457 1455
1503 1502 1502 1501 1500 1499 1498 1497 1496 1495 1494 1492 1491 1489 1488 1486 1485 1483 1481 1480 1479 1477 1476 1474 1473 1471 1470 1469 1467 1465 1463 1462 1461 1460 1458 1456 1454 1451
1505 1505 1504 1503 1502 1501 1500 1499 1497 1496 1494 1493 1491 1490 1488 1486 1485 1483 1481 1480 1478 1477 1475 1473 1471 1469 1468 1466 1465 1463 1461 1459 1458 1456 1455 1453 1452 1450